IK8SCR Weather Reports


time (UTC)temp
C
wind
direction
speed
KPH
gust
KPH
rain 1hr
cm
rain 24hr
cm
rain mn
cm
humidity
%
barometer
mb
20260507211505 20 0 0.0 0.0 0.00 0.15 0.08 3 1012.0
20260507210504 19 0 0.0 0.0 0.00 0.15 0.08 3 1012.0
20260507210005 19 0 0.0 0.0 0.00 0.15 0.08 3 1012.0
20260507205504 19 0 0.0 0.0 0.00 0.15 0.08 3 1012.0
20260507205007 19 0 0.0 0.0 0.00 0.15 0.08 3 1012.1
20260507204504 19 0 0.0 0.0 0.00 0.15 0.08 3 1012.1
20260507204007 18 0 0.0 0.0 0.00 0.15 0.08 3 1012.1
20260507203505 18 0 0.0 0.0 0.00 0.15 0.08 3 1012.3
20260507203007 18 0 0.0 0.0 0.00 0.15 0.08 3 1012.3
20260507202504 17 0 0.0 0.0 0.00 0.15 0.08 3 1012.5
20260507202006 17 0 0.0 0.0 0.00 0.15 0.08 3 1012.4
20260507201504 17 0 0.0 0.0 0.00 0.15 0.08 3 1012.4
20260507201007 18 0 0.0 0.0 0.00 0.15 0.08 3 1012.5
20260507200506 18 0 0.0 0.0 0.00 0.15 0.08 3 1012.5
20260507200005 18 0 0.0 0.0 0.00 0.15 0.08 3 1012.5
20260507195504 18 0 0.0 0.0 0.00 0.15 0.08 3 1012.4
20260507195006 18 0 0.0 0.0 0.00 0.15 0.08 3 1012.5
20260507194505 18 0 0.0 0.0 0.00 0.15 0.08 3 1012.5
20260507194007 18 0 0.0 0.0 0.00 0.15 0.08 3 1012.5
20260507193505 18 0 0.0 0.0 0.00 0.18 0.08 3 1012.4
20260507192504 18 0 0.0 0.0 0.00 0.18 0.08 3 1012.6
20260507192007 18 0 0.0 0.0 0.00 0.18 0.08 3 1012.6
20260507191505 18 0 0.0 0.0 0.00 0.18 0.08 3 1012.7
20260507191007 18 0 0.0 0.0 0.00 0.18 0.08 3 1012.7
20260507190504 18 0 0.0 0.0 0.00 0.18 0.08 3 1012.8
20260507190005 18 0 0.0 0.0 0.00 0.18 0.08 3 1012.7
20260507185007 18 0 0.0 0.0 0.00 0.18 0.08 3 1012.6
20260507184504 18 0 0.0 0.0 0.00 0.18 0.08 3 1012.6
20260507184007 18 0 0.0 0.0 0.00 0.18 0.08 3 1012.5
20260507183504 18 0 0.0 0.0 0.00 0.18 0.08 3 1012.4
20260507183006 18 0 0.0 0.0 0.00 0.18 0.08 3 1012.5
20260507182504 18 0 0.0 0.0 0.00 0.18 0.08 3 1012.4
20260507182006 18 0 0.0 0.0 0.00 0.18 0.08 3 1012.3
20260507181504 18 0 0.0 0.0 0.00 0.18 0.08 3 1012.2
20260507181007 18 0 0.0 0.0 0.00 0.18 0.08 3 1012.3
20260507180504 19 0 0.0 0.0 0.00 0.18 0.08 3 1012.4
20260507180004 19 0 0.0 0.0 0.00 0.18 0.08 3 1012.4
20260507174504 19 0 0.0 0.0 0.00 0.18 0.08 3 1012.4
20260507173504 19 0 0.0 0.0 0.00 0.18 0.08 3 1012.4
20260507173007 20 0 0.0 0.0 0.00 0.18 0.08 3 1012.5
20260507172504 20 0 0.0 0.0 0.00 0.18 0.08 6 1012.5
20260507172007 20 0 0.0 0.0 0.00 0.18 0.08 10 1012.4
20260507171504 20 0 0.0 0.0 0.00 0.18 0.08 14 1012.4
20260507171007 20 0 0.0 0.0 0.00 0.18 0.08 12 1012.5
20260507170005 20 0 0.0 0.0 0.00 0.18 0.08 9 1012.5
20260507165504 20 0 0.0 0.0 0.00 0.18 0.08 5 1012.5
20260507165007 20 0 0.0 0.0 0.00 0.18 0.08 6 1012.4
20260507164505 21 0 0.0 0.0 0.00 0.18 0.08 6 1012.4
20260507164007 21 0 0.0 0.0 0.00 0.18 0.08 9 1012.5
20260507163007 21 0 0.0 0.0 0.00 0.18 0.08 13 1012.5
20260507162504 21 0 0.0 0.0 0.00 0.18 0.08 18 1012.5
20260507162007 21 0 0.0 0.0 0.00 0.18 0.08 22 1012.5
20260507161504 22 0 0.0 0.0 0.00 0.18 0.08 17 1012.6
20260507161006 22 0 0.0 0.0 0.00 0.18 0.08 23 1012.7
20260507160504 22 0 0.0 0.0 0.00 0.18 0.08 17 1012.6
20260507160004 22 0 0.0 0.0 0.00 0.18 0.08 19 1012.7
20260507155504 22 0 0.0 0.0 0.00 0.18 0.08 27 1012.7
20260507155006 23 0 0.0 0.0 0.00 0.18 0.08 32 1012.7
20260507154504 23 0 0.0 0.0 0.00 0.18 0.08 34 1012.7
20260507154009 23 0 0.0 0.0 0.00 0.18 0.08 36 1012.7
20260507153505 23 0 0.0 0.0 0.00 0.18 0.08 37 1012.7
20260507152504 23 0 0.0 0.0 0.00 0.18 0.08 38 1012.7
20260507152006 23 0 0.0 0.0 0.00 0.18 0.08 38 1012.7
20260507151505 23 0 0.0 0.0 0.00 0.18 0.08 37 1012.7
20260507151007 23 0 0.0 0.0 0.00 0.18 0.08 35 1012.8
20260507150504 23 0 0.0 0.0 0.00 0.18 0.08 39 1012.9
20260507150005 23 0 0.0 0.0 0.00 0.18 0.08 38 1013.1
20260507145504 23 0 0.0 0.0 0.00 0.18 0.08 34 1013.0
20260507145007 23 0 0.0 0.0 0.00 0.18 0.08 34 1013.1
20260507144504 23 0 0.0 0.0 0.00 0.18 0.08 32 1013.0
20260507144006 23 0 0.0 0.0 0.00 0.18 0.08 32 1013.0
20260507143504 23 0 0.0 0.0 0.00 0.18 0.08 34 1012.9
20260507143006 23 0 0.0 0.0 0.00 0.18 0.08 37 1012.9
20260507142504 23 0 0.0 0.0 0.00 0.18 0.08 32 1012.9
20260507142006 23 0 0.0 0.0 0.00 0.18 0.08 35 1013.0
20260507141504 23 0 0.0 0.0 0.00 0.18 0.08 30 1013.1
20260507141007 23 0 0.0 0.0 0.00 0.18 0.08 34 1013.1
20260507140504 24 0 0.0 0.0 0.00 0.18 0.08 37 1013.2
20260507140004 24 0 0.0 0.0 0.00 0.18 0.08 35 1013.3
20260507135504 24 0 0.0 0.0 0.00 0.18 0.08 35 1013.4
20260507134504 24 0 0.0 0.0 0.00 0.18 0.08 36 1013.4
20260507134006 24 0 0.0 0.0 0.00 0.18 0.08 41 1013.5
20260507133504 25 0 0.0 0.0 0.00 0.18 0.08 41 1013.6
20260507133006 25 0 0.0 0.0 0.00 0.18 0.08 45 1013.6
20260507132504 25 0 0.0 0.0 0.00 0.18 0.08 44 1013.7
20260507131504 25 0 0.0 0.0 0.00 0.18 0.08 40 1013.7
20260507131006 25 0 0.0 0.0 0.00 0.18 0.08 38 1013.8
20260507130504 25 0 0.0 0.0 0.00 0.18 0.08 45 1013.9
20260507130004 25 0 0.0 0.0 0.00 0.18 0.08 42 1013.9
20260507125504 25 0 0.0 0.0 0.00 0.18 0.08 43 1013.9
20260507125006 25 0 0.0 0.0 0.00 0.18 0.08 40 1014.0
20260507124504 25 0 0.0 0.0 0.00 0.18 0.08 41 1014.0
20260507124006 25 0 0.0 0.0 0.00 0.18 0.08 39 1014.2
20260507123504 25 0 0.0 0.0 0.00 0.18 0.08 35 1014.1
20260507123006 25 0 0.0 0.0 0.00 0.18 0.08 41 1014.2
20260507122006 25 0 0.0 0.0 0.00 0.18 0.08 44 1014.4
20260507121006 25 0 0.0 0.0 0.00 0.18 0.08 41 1014.4
20260507120004 25 0 0.0 0.0 0.00 0.18 0.08 40 1014.4
20260507115006 25 0 0.0 0.0 0.00 0.18 0.08 39 1014.3
20260507114504 25 0 0.0 0.0 0.00 0.18 0.08 41 1014.3
20260507114006 25 0 0.0 0.0 0.00 0.18 0.08 40 1014.4
20260507113503 25 0 0.0 0.0 0.00 0.18 0.08 37 1014.5
20260507112006 24 0 0.0 0.0 0.00 0.18 0.08 32 1014.6
20260507111506 24 0 0.0 0.0 0.00 0.18 0.08 25 1014.7
20260507110504 24 0 0.0 0.0 0.00 0.18 0.08 16 1014.9
20260507110004 23 0 0.0 0.0 0.00 0.18 0.08 26 1015.0
20260507105504 23 0 0.0 0.0 0.00 0.18 0.08 21 1015.0
20260507105007 23 0 0.0 0.0 0.00 0.18 0.08 9 1015.0
20260507104505 23 0 0.0 0.0 0.00 0.18 0.08 13 1015.1
20260507104007 23 0 0.0 0.0 0.00 0.18 0.08 12 1015.2
20260507103504 23 0 0.0 0.0 0.00 0.18 0.08 17 1015.2
20260507102504 23 0 0.0 0.0 0.00 0.18 0.08 25 1015.3
20260507102007 23 0 0.0 0.0 0.00 0.18 0.08 27 1015.4
20260507101504 23 0 0.0 0.0 0.00 0.18 0.08 24 1015.4
20260507101006 23 0 0.0 0.0 0.00 0.18 0.08 26 1015.4
20260507100505 22 0 0.0 0.0 0.00 0.18 0.08 31 1015.5
20260507095505 22 0 0.0 0.0 0.00 0.18 0.08 29 1015.3
20260507095007 22 0 0.0 0.0 0.00 0.18 0.08 30 1015.2
20260507094504 22 0 0.0 0.0 0.00 0.18 0.08 30 1015.2
20260507094006 22 0 0.0 0.0 0.00 0.18 0.08 28 1015.2
20260507093504 22 0 0.0 0.0 0.00 0.18 0.08 24 1015.2
20260507093006 22 0 0.0 0.0 0.00 0.18 0.08 19 1015.3
20260507092504 22 0 0.0 0.0 0.00 0.18 0.08 18 1015.4
20260507092007 22 0 0.0 0.0 0.00 0.18 0.08 12 1015.4
20260507091504 22 0 0.0 0.0 0.00 0.18 0.08 16 1015.5
20260507090505 22 0 0.0 0.0 0.00 0.18 0.08 3 1015.3
20260507085505 21 0 0.0 0.0 0.00 0.18 0.08 6 1015.3
20260507085007 21 0 0.0 0.0 0.00 0.18 0.08 3 1015.3
20260507084505 21 0 0.0 0.0 0.00 0.18 0.08 3 1015.3
20260507083505 21 0 0.0 0.0 0.00 0.18 0.08 3 1015.2
20260507083006 20 0 0.0 0.0 0.00 0.18 0.08 3 1015.4
20260507082504 20 0 0.0 0.0 0.00 0.18 0.08 3 1015.4
20260507081505 20 0 0.0 0.0 0.00 0.18 0.08 3 1015.5
20260507081007 20 0 0.0 0.0 0.00 0.18 0.08 3 1015.6
20260507080005 19 0 0.0 0.0 0.00 0.18 0.08 3 1015.6
20260507075507 19 0 0.0 0.0 0.00 0.18 0.08 3 1015.6
20260507075007 19 0 0.0 0.0 0.00 0.18 0.08 3 1015.5
20260507074508 19 0 0.0 0.0 0.00 0.18 0.08 3 1015.6
20260507073505 18 0 0.0 0.0 0.00 0.18 0.08 3 1015.6
20260507073006 18 0 0.0 0.0 0.00 0.18 0.08 3 1015.6
20260507072504 18 0 0.0 0.0 0.00 0.18 0.08 3 1015.7
20260507072006 18 0 0.0 0.0 0.00 0.18 0.08 3 1015.7
20260507071504 18 0 0.0 0.0 0.00 0.18 0.08 3 1015.6
20260507071006 17 0 0.0 0.0 0.00 0.18 0.08 3 1015.6
20260507070504 17 0 0.0 0.0 0.00 0.18 0.08 3 1015.6
20260507065504 17 0 0.0 0.0 0.00 0.18 0.08 3 1015.6
20260507065007 16 0 0.0 0.0 0.00 0.18 0.08 3 1015.5
20260507064505 16 0 0.0 0.0 0.00 0.18 0.08 3 1015.5
20260507064007 16 0 0.0 0.0 0.00 0.18 0.08 3 1015.5
20260507063505 16 0 0.0 0.0 0.00 0.18 0.08 3 1015.5
20260507063006 16 0 0.0 0.0 0.00 0.18 0.08 3 1015.5
20260507062006 16 0 0.0 0.0 0.00 0.18 0.08 3 1015.6
20260507061504 16 0 0.0 0.0 0.00 0.18 0.08 3 1015.5
20260507061006 15 0 0.0 0.0 0.00 0.18 0.08 3 1015.6
20260507060504 15 0 0.0 0.0 0.00 0.18 0.08 3 1015.6
20260507060004 15 0 0.0 0.0 0.00 0.18 0.08 3 1015.5
20260507055006 15 0 0.0 0.0 0.00 0.18 0.08 3 1015.6
20260507054007 15 0 0.0 0.0 0.00 0.18 0.08 3 1015.5
20260507053505 15 0 0.0 0.0 0.00 0.18 0.08 3 1015.5
20260507053007 15 0 0.0 0.0 0.00 0.18 0.08 3 1015.5
20260507052504 15 0 0.0 0.0 0.00 0.18 0.08 3 1015.5
20260507052006 15 0 0.0 0.0 0.00 0.18 0.08 3 1015.5
20260507051504 15 0 0.0 0.0 0.00 0.18 0.08 3 1015.6
20260507051006 15 0 0.0 0.0 0.00 0.18 0.08 3 1015.5
20260507050504 14 0 0.0 0.0 0.00 0.18 0.08 3 1015.4
20260507050005 14 0 0.0 0.0 0.00 0.18 0.08 3 1015.4
20260507045505 13 0 0.0 0.0 0.00 0.18 0.08 3 1015.2
20260507045007 13 0 0.0 0.0 0.00 0.18 0.08 3 1015.2
20260507044006 13 0 0.0 0.0 0.00 0.18 0.08 3 1015.1
20260507043504 13 0 0.0 0.0 0.00 0.18 0.08 3 1015.0
20260507043006 13 0 0.0 0.0 0.00 0.18 0.08 3 1015.0
20260507042504 13 0 0.0 0.0 0.00 0.18 0.08 3 1014.9
20260507042006 13 0 0.0 0.0 0.00 0.18 0.08 3 1014.8
20260507041504 13 0 0.0 0.0 0.00 0.18 0.08 3 1014.9
20260507040504 13 0 0.0 0.0 0.00 0.18 0.08 3 1014.8
20260507040004 13 0 0.0 0.0 0.00 0.18 0.08 3 1014.8
20260507035504 13 0 0.0 0.0 0.00 0.18 0.08 3 1014.8
20260507035006 14 0 0.0 0.0 0.00 0.18 0.08 3 1014.9
20260507034505 14 0 0.0 0.0 0.00 0.18 0.08 3 1014.9
20260507034006 14 0 0.0 0.0 0.00 0.18 0.08 3 1015.0
20260507033504 14 0 0.0 0.0 0.00 0.18 0.08 3 1015.0
20260507033006 14 0 0.0 0.0 0.00 0.18 0.08 3 1015.1
20260507032504 14 0 0.0 0.0 0.00 0.18 0.08 3 1015.2
20260507032007 14 0 0.0 0.0 0.00 0.18 0.08 3 1015.2
20260507031504 14 0 0.0 0.0 0.00 0.18 0.08 3 1015.0
20260507031007 14 0 0.0 0.0 0.03 0.18 0.08 3 1015.0
20260507030504 15 0 0.0 0.0 0.03 0.18 0.08 3 1014.9
20260507030004 15 0 0.0 0.0 0.03 0.18 0.08 3 1014.6
20260507025504 15 0 0.0 0.0 0.03 0.18 0.08 3 1014.4
20260507025006 15 0 0.0 0.0 0.03 0.18 0.08 3 1014.3
20260507024505 15 0 0.0 0.0 0.05 0.18 0.08 3 1014.4
20260507024007 15 0 0.0 0.0 0.05 0.18 0.08 3 1014.3
20260507023504 15 0 0.0 0.0 0.05 0.18 0.08 3 1014.4
20260507023006 14 0 0.0 0.0 0.05 0.18 0.08 3 1014.3
20260507022504 14 0 0.0 0.0 0.05 0.18 0.08 3 1014.5
20260507022006 14 0 0.0 0.0 0.05 0.18 0.08 3 1014.7
20260507021504 14 0 0.0 0.0 0.05 0.18 0.08 3 1014.9
20260507021006 14 0 0.0 0.0 0.03 0.15 0.05 3 1014.8
20260507020004 14 0 0.0 0.0 0.03 0.15 0.05 3 1015.0
20260507015505 14 0 0.0 0.0 0.03 0.15 0.05 3 1015.1
20260507015006 14 0 0.0 0.0 0.03 0.15 0.05 3 1015.1
20260507013504 14 0 0.0 0.0 0.00 0.15 0.05 3 1015.0
20260507013006 14 0 0.0 0.0 0.03 0.15 0.05 3 1015.1
20260507012503 14 0 0.0 0.0 0.03 0.15 0.05 3 1015.2
20260507012006 14 0 0.0 0.0 0.05 0.15 0.05 3 1015.1
20260507011504 14 0 0.0 0.0 0.05 0.15 0.05 3 1015.2
20260507010504 14 0 0.0 0.0 0.05 0.15 0.05 3 1015.1
20260507010004 14 0 0.0 0.0 0.05 0.15 0.05 3 1015.1
20260507005504 14 0 0.0 0.0 0.05 0.15 0.05 3 1015.2
20260507005006 14 0 0.0 0.0 0.05 0.15 0.05 3 1015.2
20260507004504 14 0 0.0 0.0 0.05 0.15 0.05 3 1015.2
20260507004006 14 0 0.0 0.0 0.08 0.15 0.05 3 1015.0
20260507003006 14 0 0.0 0.0 0.08 0.13 0.03 3 1015.1
20260507002504 14 0 0.0 0.0 0.08 0.13 0.03 3 1015.2
20260507002006 14 0 0.0 0.0 0.05 0.10 0.00 3 1015.3
20260507001504 14 0 0.0 0.0 0.05 0.10 0.00 3 1015.4
20260507001006 14 0 0.0 0.0 0.05 0.10 0.00 3 1015.4
20260507000004 15 0 0.0 0.0 0.05 0.10 0.00 3 1015.4
20260506235504 15 0 0.0 0.0 0.05 0.10 0.10 3 1015.6
20260506235006 15 0 0.0 0.0 0.05 0.10 0.10 3 1015.6
20260506234504 15 0 0.0 0.0 0.05 0.08 0.08 3 1015.7
20260506234006 15 0 0.0 0.0 0.03 0.05 0.05 3 1015.8
20260506233504 15 0 0.0 0.0 0.03 0.05 0.05 3 1015.8
20260506233006 15 0 0.0 0.0 0.03 0.05 0.05 3 1015.9
20260506232504 15 0 0.0 0.0 0.03 0.05 0.05 3 1015.9
20260506232006 15 0 0.0 0.0 0.03 0.05 0.05 3 1016.0
20260506231504 15 0 0.0 0.0 0.03 0.05 0.05 3 1016.0
20260506231006 15 0 0.0 0.0 0.03 0.05 0.05 3 1016.1
20260506230005 15 0 0.0 0.0 0.03 0.05 0.05 3 1016.1
20260506225505 15 0 0.0 0.0 0.03 0.05 0.05 3 1016.2
20260506225006 15 0 0.0 0.0 0.03 0.05 0.05 3 1016.3
20260506224504 15 0 0.0 0.0 0.03 0.05 0.05 3 1016.3
20260506224007 15 0 0.0 0.0 0.03 0.05 0.05 3 1016.3
20260506223504 16 0 0.0 0.0 0.03 0.05 0.05 3 1016.4
20260506223007 16 0 0.0 0.0 0.00 0.03 0.03 3 1016.4
20260506222504 16 0 0.0 0.0 0.00 0.03 0.03 3 1016.4
20260506222006 16 0 0.0 0.0 0.00 0.03 0.03 3 1016.3
20260506221006 16 0 0.0 0.0 0.00 0.03 0.03 3 1016.4
20260506220505 16 0 0.0 0.0 0.00 0.03 0.03 3 1016.4
20260506220005 16 0 0.0 0.0 0.00 0.03 0.03 3 1016.3
20260506215505 16 0 0.0 0.0 0.00 0.03 0.03 3 1016.4
20260506215007 16 0 0.0 0.0 0.00 0.03 0.03 3 1016.4
20260506214505 16 0 0.0 0.0 0.00 0.03 0.03 3 1016.4
20260506214006 16 0 0.0 0.0 0.00 0.03 0.03 3 1016.5
20260506213006 16 0 0.0 0.0 0.00 0.03 0.03 3 1016.6
20260506212504 16 0 0.0 0.0 0.00 0.03 0.03 3 1016.6